User: anonymous   Login
Location: Sundre
(51.7972°N, 114.6405°W)
Time: 04:58:30
(UTC-07:00)
Language:

TIGRISAT - Orbit

View from above orbital plane
View from above orbital plane
View from above satellite
View from above satellite

Ground track
Ground track

The orbit data is extracted from the following two-line orbital elements,

1 40043U 14033AK  20028.59615175  .00000104  00000-0  22565-4 0  9992
2 40043  97.7271 251.4919 0061341  93.7727 267.0499 14.74335063301598
Epoch (UTC): 28 January 2020 14:18:27
Eccentricity: 0.0061341
inclination: 97.7271°
perigee height: 604 km
apogee height: 690 km
right ascension of ascending node: 251.4919°
argument of perigee: 93.7727°
revolutions per day: 14.74335063
mean anomaly at epoch: 267.0499°
orbit number at epoch: 30159

The dashed part of the orbit path shows where the satellite is in the earth's shadow,  

DLR